Temp
65 65 65 65 66 67 68 69 69 70 70 70 71 71 72 72 73 72 73 73 73 73 71 71 71 71 73 74 74 74 74 74 74 74 74 74 74 74 74 74 74 74 75 75 76 76 76 77 77 78 78 78 78 78 77 78 78 79 79 78 78 78 78
65 66 65 66 67 67 68 68 69 69 70 71 71 72 72 72 72 72 72 73 74 74 73 72 72 72 71 73 74 74 74 74 75 75 75 74 75 75 75 75 75 74 74 75 76 76 77 78 78 77 78 78 78 78 78 78 78 78 78 78 77 77 78
65 66 66 66 66 67 67 68 69 70 70 70 71 72 72 72 73 72 72 72 73 74 74 74 74 73 73 73 74 74 74 74 75 75 75 75 75 76 76 76 75 76 76 77 76 77 78 78 77 77 78 78 79 78 78 78 77 78 77 77 77 78 77
65 66 66 67 67 67 68 68 69 70 71 71 71 71 71 72 73 73 73 72 72 73 73 74 74 74 73 72 72 74 74 75 75 76 76 76 76 76 76 75 75 76 76 76 78 78 80 79 78 77 78 77 77 78 79 78 79 78 78 77 77 77 77
64 64 65 65 66 66 67 67 68 69 70 72 71 72 71 72 72 72 72 73 73 73 73 74 74 74 74 73 73 75 75 75 75 76 76 77 77 77 76 76 76 76 76 77 77 77 77 78 79 78 77 76 78 77 78 78 78 77 77 77 76 77 77
64 64 64 65 65 66 66 67 68 69 69 70 70 71 72 72 72 72 72 73 73 74 74 74 74 74 73 73 74 75 75 75 75 76 76 77 77 77 77 77 77 77 77 77 78 78 78 78 79 79 78 79 79 79 79 79 79 79 78 77 76 77 78
64 65 65 65 65 65 66 66 67 68 68 70 70 72 72 72 72 72 72 72 73 72 73 73 74 73 73 73 73 73 74 75 75 75 77 77 78 77 77 78 78 78 79 79 78 79 78 78 78 78 79 79 79 79 78 77 77 78 77 76 76 76 76
65 65 64 65 65 65 65 66 66 67 69 69 70 70 70 71 71 71 72 72 73 73 72 73 73 73 73 74 73 73 73 74 75 75 75 76 77 77 78 78 78 79 79 79 79 79 79 79 80 80 79 79 79 79 79 78 76 79 78 77 76 77 79
65 65 65 65 65 65 65 66 66 68 68 67 68 68 69 69 70 70 70 70 71 71 71 73 73 74 74 73 73 73 73 74 74 73 73 73 75 76 78 78 79 79 79 79 80 80 80 80 80 79 79 79 79 78 79 78 79 79 78 77 77 77 78
64 64 64 64 64 65 66 66 67 67 67 68 68 68 68 68 68 68 69 69 69 70 71 72 72 73 73 73 73 73 73 73 73 74 73 72 74 75 77 78 79 80 80 80 81 81 80 80 80 79 77 78 78 78 78 78 79 79 79 78 78 77 77
63 64 64 64 65 65 65 66 66 66 66 66 66 67 67 68 68 68 69 69 69 69 70 71 72 72 72 72 72 73 72 73 73 73 73 73 74 75 76 77 78 80 80 81 81 81 81 80 80 79 78 79 79 78 78 78 79 78 79 79 79 78 78
63 63 64 64 64 64 65 66 65 65 65 65 66 66 66 66 67 67 67 69 69 69 71 71 70 70 71 71 71 72 72 72 73 73 73 73 73 74 76 77 78 79 80 81 80 81 81 81 80 80 78 78 79 79 79 78 78 77 78 79 79 78 78
63 64 64 64 64 64 63 64 64 64 64 65 65 66 66 66 66 66 67 68 69 69 70 71 70 70 70 70 70 71 71 72 72 72 73 73 74 75 75 76 77 78 79 80 80 81 81 82 80 79 79 79 79 79 79 78 78 76 76 77 78 77 78
65 63 63 63 63 63 64 63 63 63 64 64 65 65 65 65 65 66 66 66 67 68 69 69 69 70 70 70 70 70 71 71 72 72 72 73 73 74 74 75 76 77 78 79 78 78 80 81 81 81 81 80 80 80 79 78 77 77 76 76 78 78 78
62 63 63 63 63 63 63 63 63 63 63 64 64 64 65 65 65 65 65 66 67 68 68 68 68 68 69 70 70 70 71 71 72 73 72 73 73 73 73 74 75 75 76 76 77 78 79 79 79 80 80 80 80 79 80 79 79 80 79 77 77 78 78
63 63 63 63 63 63 63 63 63 63 62 63 64 64 64 65 65 64 65 65 66 67 68 68 67 67 68 68 68 69 70 71 72 72 72 72 73 73 73 73 73 73 74 74 75 76 76 77 77 78 78 79 79 79 79 79 81 81 81 80 79 77 79
62 63 63 63 62 62 62 62 62 63 63 63 63 63 63 63 64 64 65 65 65 66 68 67 66 67 67 67 67 67 68 68 69 70 71 71 71 71 71 72 72 72 72 73 74 74 75 76 77 78 79 79 79 79 79 80 80 80 73 72 78 81 78
63 63 63 63 62 62 62 62 62 63 63 63 63 62 62 62 63 64 65 65 65 67 67 66 65 65 65 66 67 67 67 66 67 68 68 69 70 71 71 71 71 71 72 72 73 74 75 75 76 76 78 79 79 79 78 79 80 72 71 71 71 79 81
64 63 63 63 62 63 62 63 63 63 63 63 63 63 63 62 64 64 64 64 66 66 65 65 65 64 65 65 66 66 66 66 66 66 66 67 68 69 70 71 72 71 71 72 73 74 73 74 75 75 76 77 76 76 79 80 77 70 69 69 69 72 80
64 64 64 63 63 63 63 62 63 63 64 64 64 64 65 65 65 64 65 66 65 63 63 63 63 63 64 64 65 65 65 65 65 65 66 67 67 68 68 69 70 71 73 73 73 73 73 74 74 74 74 75 75 75 77 77 76 70 67 67 68 68 73
63 64 64 63 62 62 62 63 63 62 62 63 64 64 65 65 65 65 65 64 64 63 62 62 62 63 63 64 65 65 65 65 65 64 65 66 66 67 67 67 69 70 71 72 72 72 72 73 74 74 75 75 76 75 76 77 71 66 66 65 65 66 73
64 64 64 64 63 62 62 63 64 64 64 65 66 64 63 63 64 64 63 62 62 62 62 61 61 62 63 64 66 66 66 66 66 65 66 66 66 67 67 67 68 68 70 70 71 73 73 73 73 73 74 74 74 74 74 76 68 66 64 63 63 66 74
66 65 66 65 65 64 64 65 64 65 65 64 64 63 63 63 64 63 62 62 61 62 62 61 61 63 65 66 66 66 66 66 66 66 66 66 66 66 67 67 68 68 69 69 70 71 71 72 72 73 73 73 73 73 72 74 69 64 64 63 63 68 74
65 66 65 64 64 64 63 63 64 65 66 63 62 62 62 63 63 62 61 61 61 62 62 62 62 65 66 65 65 65 65 65 65 65 66 66 65 66 66 67 67 67 69 69 69 69 71 72 72 72 72 72 71 72 72 74 70 62 62 62 62 71 74
65 65 65 65 65 64 63 64 65 65 64 63 63 62 62 62 61 61 61 62 61 62 63 64 65 65 65 65 65 65 65 65 65 65 65 64 65 65 65 66 66 68 68 69 70 70 70 71 71 71 70 70 70 72 72 72 70 61 60 61 61 68 73
63 64 65 66 66 66 64 65 66 64 63 63 63 62 61 62 62 62 61 61 62 64 64 64 65 65 65 65 65 65 64 64 63 64 64 63 64 65 65 66 66 66 66 67 69 70 70 70 71 70 65 64 65 66 66 66 66 67 60 57 59 63 71
66 66 65 65 65 67 65 65 65 64 64 63 62 62 62 62 62 62 63 64 63 64 64 65 65 64 64 64 64 63 63 63 63 62 63 63 63 64 65 64 64 64 65 65 67 69 68 68 66 63 62 62 62 63 62 63 65 64 59 57 57 59 66
65 66 66 67 68 66 64 64 63 63 63 61 62 63 62 63 64 64 64 63 63 65 65 65 65 64 64 63 62 62 62 62 63 63 62 63 63 63 63 64 63 63 63 63 63 64 63 62 62 60 60 60 60 60 60 61 64 61 59 56 54 56 58
65 64 64 65 65 66 65 63 63 64 64 62 62 62 62 63 63 64 65 63 65 65 65 65 64 64 63 63 62 62 61 61 61 62 62 63 63 62 62 63 62 62 62 62 61 60 60 60 60 60 59 59 59 59 59 59 60 60 61 57 52 52 55
64 64 65 66 66 66 66 63 63 63 62 62 62 62 62 63 62 63 63 62 63 64 65 64 63 63 63 63 62 62 61 61 61 61 62 62 62 62 62 62 62 61 61 61 60 60 59 59 59 59 58 58 57 58 59 59 59 59 57 56 52 50 51
64 64 65 64 64 67 66 64 63 63 62 61 62 61 61 62 63 64 63 62 63 63 63 62 62 61 61 61 61 61 61 60 60 59 59 61 61 61 61 61 62 61 61 61 60 59 58 58 59 58 58 57 57 57 58 59 59 60 59 56 54 53 53
63 63 64 64 64 66 64 64 63 63 63 62 62 62 62 61 63 64 62 62 62 61 61 62 62 62 61 62 61 61 61 60 60 59 58 59 60 61 61 60 61 62 61 61 60 60 59 59 59 58 58 57 57 57 57 58 58 59 59 60 59 57 54
62 63 63 63 64 65 63 63 62 62 62 62 62 62 62 61 62 62 62 61 61 62 62 63 63 63 62 61 61 61 61 60 59 58 57 56 57 58 60 61 59 59 60 61 61 60 60 60 59 58 57 57 57 57 57 56 57 58 58 59 59 59 60
61 61 62 63 64 63 62 62 62 62 61 61 61 61 62 62 62 62 62 63 63 63 63 64 63 63 62 62 62 61 60 59 60 57 56 55 54 53 54 58 60 57 56 57 59 59 58 59 58 57 57 56 57 56 56 56 56 55 57 58 59 59 59
61 62 60 61 61 62 61 61 61 60 61 61 60 60 61 61 62 62 62 63 63 63 64 64 64 63 63 63 62 61 61 60 60 58 57 55 54 52 51 51 54 57 57 56 56 58 60 59 58 58 58 58 57 56 55 55 53 53 52 53 53 56 59
60 60 60 60 61 61 61 61 60 59 60 60 58 59 61 61 61 62 64 64 63 63 64 64 64 64 63 63 62 62 61 60 59 59 59 58 57 56 54 52 48 51 56 55 54 50 49 52 58 59 58 56 56 58 56 54 53 50 47 47 47 47 48
59 59 59 59 59 58 59 59 60 60 60 59 59 60 62 62 62 62 63 64 64 64 63 63 63 63 63 63 62 61 61 60 59 59 58 58 58 58 57 56 54 46 46 51 50 48 45 45 47 50 54 58 55 52 50 50 47 45 46 46 46 46 47
61 60 59 59 60 58 59 59 59 60 61 58 60 61 61 62 61 61 63 63 64 63 62 63 62 61 62 62 61 61 60 60 60 59 59 57 57 57 57 57 56 56 48 45 47 47 45 44 44 45 47 50 54 58 55 50 46 46 46 46 46 46 46
MSLP
1013.11 1013.15 1013.19 1013.15 1013.15 1013.11 1013.11 1013.11 1013.15 1013.23 1013.19 1013.07 1012.95 1013.15 1013.19 1012.99 1012.87 1012.91 1013.07 1013.15 1013.27 1013.67 1014.19 1014.51 1014.67 1014.95 1014.79 1014.31 1014.11 1014.07 1014.15 1014.43 1014.63 1014.87 1015.07 1015.19 1015.23 1015.39 1015.59 1015.63 1015.75 1015.79 1015.79 1015.99 1015.99 1016.03 1015.95 1015.95 1016.07 1016.15 1016.23 1016.31 1016.39 1016.43 1016.51 1016.55 1016.63 1016.63 1016.67 1016.75 1016.83 1016.87 1016.91
1013.07 1013.11 1013.15 1013.19 1013.19 1013.15 1013.07 1013.03 1013.15 1013.23 1013.27 1013.15 1012.87 1012.75 1012.91 1012.95 1012.91 1012.99 1012.99 1012.99 1013.07 1013.23 1013.51 1013.91 1014.15 1014.39 1014.55 1014.23 1013.87 1013.91 1014.11 1014.19 1014.35 1014.51 1014.67 1014.87 1014.91 1015.03 1015.11 1015.27 1015.43 1015.51 1015.51 1015.51 1015.55 1015.59 1015.67 1015.71 1015.83 1015.99 1016.11 1016.11 1016.19 1016.19 1016.31 1016.35 1016.39 1016.51 1016.59 1016.63 1016.75 1016.79 1016.75
1013.11 1013.07 1013.03 1013.11 1013.11 1013.03 1012.99 1013.03 1013.03 1013.11 1013.19 1013.27 1013.15 1013.11 1013.07 1013.03 1012.87 1012.87 1012.95 1012.99 1013.07 1013.11 1013.11 1013.31 1013.51 1013.63 1013.63 1013.63 1013.67 1013.75 1013.83 1014.07 1014.31 1014.47 1014.63 1014.67 1014.71 1014.75 1014.75 1014.91 1015.07 1015.19 1015.15 1015.15 1015.23 1015.35 1015.31 1015.51 1015.59 1015.71 1015.83 1015.99 1015.99 1016.03 1016.07 1016.15 1016.19 1016.31 1016.39 1016.43 1016.59 1016.63 1016.67
1013.03 1012.87 1012.75 1012.63 1012.79 1012.87 1012.87 1012.91 1012.99 1012.99 1012.99 1013.03 1013.07 1013.07 1013.03 1012.95 1012.75 1012.75 1012.79 1012.87 1012.99 1013.11 1013.19 1013.07 1013.03 1013.19 1013.43 1013.91 1013.95 1013.75 1013.79 1013.87 1014.03 1014.31 1014.43 1014.43 1014.47 1014.43 1014.63 1014.75 1014.83 1014.91 1015.07 1015.07 1014.95 1014.99 1015.03 1015.19 1015.39 1015.51 1015.59 1015.75 1015.79 1015.79 1015.87 1015.95 1016.03 1016.11 1016.19 1016.31 1016.47 1016.43 1016.47
1012.99 1012.91 1012.91 1012.91 1012.87 1012.95 1012.91 1012.91 1012.91 1012.91 1012.91 1012.87 1012.91 1012.83 1012.87 1012.83 1012.71 1012.71 1012.75 1012.75 1012.87 1012.99 1012.91 1012.79 1012.75 1012.83 1013.03 1013.39 1013.59 1013.59 1013.59 1013.71 1013.83 1013.95 1014.11 1014.19 1014.23 1014.31 1014.47 1014.59 1014.71 1014.79 1014.75 1014.75 1014.71 1014.83 1014.91 1015.03 1015.15 1015.27 1015.43 1015.47 1015.59 1015.63 1015.71 1015.75 1015.87 1015.91 1016.07 1016.15 1016.35 1016.31 1016.39
1012.87 1012.91 1012.87 1012.79 1012.71 1012.63 1012.71 1012.83 1012.95 1012.95 1012.99 1012.99 1012.99 1012.95 1012.79 1012.79 1012.75 1012.79 1012.75 1012.83 1012.91 1012.83 1012.75 1012.71 1012.75 1012.75 1012.99 1013.07 1013.23 1013.39 1013.47 1013.55 1013.59 1013.67 1013.79 1013.87 1014.03 1014.19 1014.23 1014.23 1014.35 1014.51 1014.63 1014.63 1014.55 1014.55 1014.55 1014.71 1014.83 1014.95 1015.15 1015.19 1015.31 1015.43 1015.47 1015.63 1015.63 1015.71 1015.83 1015.99 1016.11 1016.15 1016.27
1012.59 1012.67 1012.83 1012.79 1012.67 1012.75 1012.79 1012.75 1012.87 1012.87 1012.83 1012.79 1012.71 1012.67 1012.71 1012.75 1012.79 1012.75 1012.79 1012.87 1012.83 1012.91 1012.83 1012.83 1012.79 1012.87 1012.99 1013.07 1013.23 1013.35 1013.51 1013.55 1013.59 1013.59 1013.51 1013.63 1013.71 1013.83 1013.83 1013.87 1013.95 1014.07 1014.11 1014.23 1014.43 1014.35 1014.47 1014.51 1014.55 1014.63 1014.75 1014.87 1015.03 1015.19 1015.31 1015.43 1015.47 1015.43 1015.59 1015.79 1015.95 1015.95 1015.99
1012.31 1012.51 1012.67 1012.71 1012.79 1012.79 1012.75 1012.75 1012.83 1012.87 1012.79 1012.75 1012.79 1012.87 1012.87 1012.79 1012.79 1012.83 1012.83 1012.79 1012.79 1012.79 1012.87 1012.91 1012.99 1012.99 1012.99 1013.03 1013.11 1013.27 1013.31 1013.39 1013.31 1013.39 1013.43 1013.51 1013.51 1013.63 1013.55 1013.59 1013.71 1013.79 1013.91 1014.15 1014.07 1014.07 1014.19 1014.23 1014.19 1014.23 1014.39 1014.59 1014.75 1014.87 1014.95 1015.07 1015.15 1015.19 1015.35 1015.67 1015.79 1015.83 1015.75
1012.27 1012.23 1012.51 1012.75 1012.75 1012.75 1012.71 1012.75 1012.75 1012.79 1012.83 1012.87 1012.91 1012.87 1012.91 1012.91 1012.87 1012.87 1012.87 1012.83 1012.79 1012.87 1012.87 1012.83 1012.87 1012.79 1012.79 1012.91 1013.07 1013.15 1013.15 1013.19 1013.31 1013.39 1013.51 1013.63 1013.59 1013.59 1013.47 1013.31 1013.27 1013.31 1013.67 1013.83 1013.83 1013.75 1013.83 1013.95 1013.95 1014.03 1014.15 1014.31 1014.43 1014.55 1014.63 1014.71 1014.83 1014.87 1015.11 1015.31 1015.51 1015.63 1015.63
1012.43 1012.63 1012.79 1012.79 1012.87 1012.95 1012.99 1012.95 1012.95 1012.91 1012.95 1012.95 1012.91 1012.91 1012.91 1012.91 1012.91 1012.91 1012.91 1012.87 1012.87 1012.87 1012.75 1012.79 1012.79 1012.75 1012.83 1012.91 1013.03 1013.07 1013.19 1013.27 1013.23 1013.35 1013.47 1013.67 1013.63 1013.67 1013.55 1013.43 1013.31 1013.07 1013.19 1013.31 1013.43 1013.59 1013.51 1013.55 1013.71 1013.87 1014.07 1014.23 1014.27 1014.31 1014.35 1014.43 1014.51 1014.59 1014.75 1014.91 1015.07 1015.27 1015.35
1012.59 1012.71 1012.91 1012.99 1013.03 1013.11 1013.19 1013.15 1013.15 1013.15 1013.15 1013.15 1013.15 1013.15 1013.11 1013.07 1013.07 1013.03 1013.03 1012.91 1012.91 1012.79 1012.67 1012.71 1012.63 1012.75 1012.83 1012.95 1013.15 1013.15 1013.19 1013.19 1013.19 1013.35 1013.39 1013.47 1013.51 1013.55 1013.43 1013.39 1013.35 1013.19 1013.11 1013.07 1013.19 1013.19 1013.27 1013.35 1013.35 1013.59 1013.79 1013.99 1014.03 1014.11 1014.19 1014.19 1014.23 1014.39 1014.47 1014.55 1014.59 1014.75 1014.91
1012.71 1012.87 1012.99 1013.11 1013.23 1013.31 1013.27 1013.23 1013.27 1013.35 1013.35 1013.35 1013.31 1013.27 1013.27 1013.27 1013.27 1013.27 1013.23 1013.19 1013.07 1012.99 1012.87 1012.79 1012.79 1012.83 1012.91 1012.99 1013.15 1013.19 1013.19 1013.15 1013.11 1013.19 1013.23 1013.27 1013.27 1013.31 1013.27 1013.19 1013.15 1013.11 1012.99 1012.87 1012.99 1012.95 1012.95 1013.07 1013.11 1013.19 1013.43 1013.51 1013.59 1013.67 1013.75 1013.83 1013.95 1014.07 1014.15 1014.19 1014.27 1014.43 1014.55
1012.71 1012.87 1012.99 1013.03 1013.19 1013.23 1013.35 1013.43 1013.39 1013.39 1013.43 1013.39 1013.35 1013.35 1013.35 1013.31 1013.31 1013.27 1013.23 1013.19 1013.07 1013.03 1012.99 1012.95 1012.91 1012.99 1013.07 1013.11 1013.15 1013.15 1013.11 1013.11 1013.11 1013.07 1013.07 1013.03 1012.99 1012.95 1012.91 1012.87 1012.79 1012.79 1012.83 1012.71 1012.75 1012.79 1012.83 1012.79 1012.87 1012.83 1012.95 1013.07 1013.19 1013.35 1013.43 1013.51 1013.63 1013.79 1013.87 1013.95 1014.03 1014.19 1014.35
1012.99 1013.11 1013.23 1013.31 1013.31 1013.31 1013.19 1013.31 1013.51 1013.55 1013.59 1013.59 1013.51 1013.51 1013.43 1013.39 1013.39 1013.39 1013.35 1013.31 1013.15 1013.07 1013.03 1012.95 1012.95 1012.99 1013.11 1013.15 1013.19 1013.15 1013.07 1012.99 1012.91 1012.91 1012.83 1012.71 1012.67 1012.63 1012.59 1012.59 1012.59 1012.59 1012.51 1012.51 1012.71 1012.79 1012.75 1012.71 1012.63 1012.59 1012.63 1012.75 1012.87 1012.95 1013.03 1013.23 1013.39 1013.51 1013.59 1013.67 1013.79 1013.95 1014.07
1013.03 1013.07 1013.23 1013.31 1013.27 1013.23 1013.23 1013.31 1013.47 1013.59 1013.67 1013.55 1013.51 1013.55 1013.47 1013.39 1013.39 1013.39 1013.39 1013.39 1013.31 1013.19 1013.11 1013.03 1012.91 1012.95 1013.11 1013.19 1013.23 1013.15 1012.99 1012.83 1012.71 1012.63 1012.59 1012.51 1012.47 1012.51 1012.55 1012.59 1012.59 1012.55 1012.47 1012.47 1012.51 1012.47 1012.51 1012.51 1012.47 1012.51 1012.55 1012.51 1012.59 1012.71 1012.79 1012.99 1013.07 1013.07 1013.23 1013.43 1013.51 1013.59 1013.79
1012.91 1013.07 1013.15 1013.07 1013.07 1013.11 1013.19 1013.23 1013.43 1013.59 1013.59 1013.59 1013.55 1013.55 1013.55 1013.51 1013.43 1013.43 1013.47 1013.47 1013.43 1013.35 1013.15 1013.03 1013.07 1013.11 1013.15 1013.27 1013.31 1013.23 1013.07 1012.91 1012.75 1012.63 1012.51 1012.51 1012.51 1012.55 1012.59 1012.55 1012.59 1012.55 1012.51 1012.51 1012.39 1012.35 1012.31 1012.35 1012.43 1012.51 1012.55 1012.59 1012.51 1012.51 1012.59 1012.71 1012.63 1012.59 1012.67 1012.75 1012.99 1013.23 1013.35
1012.79 1012.91 1012.99 1012.95 1012.95 1013.03 1013.19 1013.43 1013.55 1013.63 1013.55 1013.59 1013.59 1013.59 1013.55 1013.51 1013.47 1013.47 1013.47 1013.39 1013.39 1013.39 1013.27 1013.19 1013.23 1013.31 1013.35 1013.35 1013.23 1013.19 1013.11 1013.07 1013.03 1012.83 1012.75 1012.55 1012.47 1012.55 1012.63 1012.59 1012.55 1012.55 1012.51 1012.47 1012.47 1012.47 1012.39 1012.39 1012.47 1012.39 1012.35 1012.43 1012.43 1012.47 1012.43 1012.39 1012.31 1012.23 1012.35 1012.51 1012.55 1012.71 1012.99
1012.55 1012.67 1012.75 1012.75 1012.83 1012.99 1013.23 1013.43 1013.59 1013.51 1013.47 1013.51 1013.51 1013.55 1013.55 1013.51 1013.55 1013.51 1013.43 1013.39 1013.35 1013.35 1013.31 1013.31 1013.39 1013.47 1013.55 1013.55 1013.39 1013.23 1013.11 1013.07 1013.03 1013.03 1012.95 1012.79 1012.75 1012.67 1012.55 1012.43 1012.39 1012.43 1012.43 1012.43 1012.43 1012.35 1012.27 1012.35 1012.35 1012.31 1012.23 1012.19 1012.19 1012.27 1012.27 1012.19 1012.03 1012.07 1012.11 1012.19 1012.27 1012.35 1012.47
1012.03 1012.27 1012.31 1012.51 1012.59 1012.79 1012.99 1013.19 1013.27 1013.23 1013.27 1013.31 1013.35 1013.39 1013.39 1013.43 1013.51 1013.43 1013.35 1013.31 1013.35 1013.31 1013.31 1013.43 1013.55 1013.59 1013.63 1013.63 1013.59 1013.47 1013.35 1013.23 1013.11 1013.03 1012.95 1012.87 1012.79 1012.75 1012.67 1012.51 1012.35 1012.27 1012.27 1012.35 1012.23 1012.19 1012.27 1012.27 1012.23 1012.19 1012.11 1012.11 1012.19 1012.19 1012.03 1011.99 1011.87 1011.95 1012.03 1012.03 1012.03 1012.11 1012.15
1011.63 1011.83 1012.07 1012.23 1012.35 1012.55 1013.03 1013.23 1013.23 1013.11 1013.03 1013.03 1013.11 1013.11 1013.23 1013.39 1013.35 1013.43 1013.39 1013.39 1013.35 1013.35 1013.39 1013.47 1013.55 1013.63 1013.71 1013.67 1013.63 1013.59 1013.51 1013.43 1013.27 1013.15 1012.99 1012.79 1012.71 1012.71 1012.71 1012.71 1012.59 1012.31 1012.07 1012.03 1011.99 1012.07 1012.11 1012.07 1012.07 1012.03 1012.03 1012.03 1012.07 1012.07 1011.99 1011.91 1011.79 1011.79 1011.83 1011.83 1011.87 1011.95 1012.11
1011.59 1011.75 1011.71 1011.95 1012.47 1012.79 1012.95 1012.95 1012.99 1013.11 1013.23 1013.19 1013.15 1013.19 1013.31 1013.39 1013.39 1013.39 1013.47 1013.51 1013.51 1013.55 1013.55 1013.59 1013.59 1013.63 1013.67 1013.67 1013.59 1013.55 1013.51 1013.51 1013.39 1013.23 1013.03 1012.83 1012.71 1012.71 1012.71 1012.67 1012.59 1012.43 1012.23 1012.07 1011.99 1011.95 1011.95 1011.91 1011.91 1011.83 1011.83 1011.87 1011.87 1011.95 1011.91 1011.79 1011.71 1011.79 1011.79 1011.71 1011.67 1011.67 1011.91
1011.19 1011.35 1011.51 1011.63 1011.95 1012.47 1012.59 1012.71 1012.71 1012.87 1012.99 1013.03 1013.11 1013.23 1013.23 1013.27 1013.35 1013.47 1013.59 1013.63 1013.63 1013.71 1013.67 1013.71 1013.75 1013.79 1013.71 1013.67 1013.55 1013.51 1013.43 1013.35 1013.31 1013.15 1012.99 1012.79 1012.59 1012.59 1012.63 1012.59 1012.51 1012.47 1012.23 1012.11 1011.95 1011.71 1011.63 1011.59 1011.63 1011.75 1011.75 1011.75 1011.75 1011.83 1011.87 1011.67 1011.63 1011.63 1011.63 1011.59 1011.55 1011.63 1011.75
1010.35 1010.63 1010.63 1011.27 1011.63 1011.95 1012.19 1012.31 1012.47 1012.59 1012.75 1012.95 1013.07 1013.15 1013.23 1013.31 1013.43 1013.55 1013.71 1013.79 1013.87 1013.83 1013.87 1013.91 1013.99 1013.91 1013.75 1013.67 1013.55 1013.47 1013.39 1013.31 1013.23 1013.11 1012.91 1012.75 1012.67 1012.51 1012.43 1012.35 1012.23 1012.15 1012.03 1012.07 1011.87 1011.79 1011.67 1011.59 1011.55 1011.47 1011.55 1011.59 1011.59 1011.71 1011.71 1011.59 1011.51 1011.55 1011.51 1011.47 1011.47 1011.51 1011.59
1010.43 1010.55 1010.95 1011.39 1011.67 1011.91 1012.19 1012.47 1012.47 1012.59 1012.63 1012.91 1013.11 1013.11 1013.23 1013.39 1013.47 1013.67 1013.83 1013.95 1013.95 1013.99 1014.03 1014.07 1014.03 1013.83 1013.71 1013.63 1013.55 1013.47 1013.43 1013.35 1013.27 1013.15 1012.95 1012.83 1012.75 1012.59 1012.39 1012.19 1012.03 1011.99 1011.79 1011.83 1011.79 1011.71 1011.55 1011.43 1011.39 1011.31 1011.31 1011.43 1011.51 1011.55 1011.67 1011.59 1011.43 1011.43 1011.43 1011.47 1011.43 1011.35 1011.43
1010.23 1010.71 1010.91 1010.99 1011.15 1011.67 1012.19 1012.31 1012.35 1012.59 1012.75 1012.91 1013.11 1013.31 1013.31 1013.39 1013.51 1013.71 1013.91 1014.03 1014.11 1014.03 1014.11 1014.11 1013.95 1013.87 1013.79 1013.71 1013.55 1013.47 1013.43 1013.35 1013.23 1013.15 1013.07 1012.95 1012.79 1012.59 1012.43 1012.23 1011.95 1011.71 1011.63 1011.51 1011.43 1011.43 1011.31 1011.27 1011.31 1011.27 1011.23 1011.31 1011.39 1011.35 1011.43 1011.51 1011.39 1011.43 1011.51 1011.51 1011.47 1011.39 1011.31
1010.47 1010.83 1011.11 1011.23 1011.35 1011.43 1011.83 1012.15 1012.43 1012.79 1012.83 1012.95 1013.11 1013.31 1013.35 1013.43 1013.51 1013.71 1013.83 1013.95 1013.91 1013.95 1014.03 1014.03 1013.71 1013.63 1013.63 1013.63 1013.59 1013.51 1013.47 1013.39 1013.31 1013.19 1013.11 1013.03 1012.79 1012.55 1012.35 1012.11 1011.95 1011.75 1011.59 1011.43 1011.19 1011.11 1011.11 1011.11 1011.11 1011.19 1011.43 1011.51 1011.47 1011.51 1011.63 1011.67 1011.59 1011.55 1011.71 1011.79 1011.63 1011.43 1011.35
1009.95 1010.19 1010.67 1011.11 1011.39 1011.59 1011.87 1012.15 1012.19 1012.39 1012.59 1012.79 1013.07 1013.23 1013.35 1013.39 1013.59 1013.71 1013.79 1013.79 1013.87 1013.99 1013.91 1013.67 1013.59 1013.59 1013.63 1013.67 1013.67 1013.63 1013.59 1013.47 1013.35 1013.23 1013.07 1012.91 1012.75 1012.51 1012.31 1012.19 1012.07 1011.83 1011.63 1011.43 1011.19 1010.95 1010.91 1011.03 1011.07 1011.35 1011.67 1011.79 1011.83 1011.87 1011.91 1011.91 1011.79 1011.75 1011.83 1011.83 1011.79 1011.67 1011.43
1010.35 1010.75 1010.87 1010.91 1011.11 1011.47 1011.95 1012.27 1012.47 1012.63 1012.71 1012.91 1013.07 1013.19 1013.31 1013.43 1013.63 1013.71 1013.75 1013.79 1013.91 1013.75 1013.51 1013.51 1013.63 1013.55 1013.59 1013.71 1013.79 1013.75 1013.71 1013.63 1013.39 1013.19 1013.07 1012.83 1012.67 1012.55 1012.39 1012.23 1012.07 1011.91 1011.71 1011.51 1011.31 1011.19 1011.27 1011.47 1011.67 1011.79 1011.91 1012.07 1012.11 1012.11 1012.15 1012.03 1011.87 1011.87 1011.79 1011.79 1011.71 1011.59 1011.59
1010.35 1010.67 1010.95 1011.23 1011.55 1011.67 1011.83 1012.35 1012.55 1012.55 1012.71 1012.99 1013.11 1013.15 1013.27 1013.43 1013.67 1013.75 1013.75 1013.79 1013.67 1013.51 1013.47 1013.51 1013.59 1013.59 1013.67 1013.75 1013.83 1013.83 1013.75 1013.67 1013.55 1013.39 1013.15 1012.99 1012.79 1012.67 1012.55 1012.31 1012.19 1012.03 1011.87 1011.79 1011.67 1011.71 1011.87 1011.87 1011.87 1011.91 1012.19 1012.35 1012.35 1012.35 1012.27 1012.19 1012.07 1012.07 1011.83 1011.71 1011.55 1011.35 1011.19
1010.35 1010.63 1010.87 1011.03 1011.19 1011.63 1011.83 1012.23 1012.43 1012.59 1012.87 1013.03 1013.11 1013.15 1013.27 1013.43 1013.71 1013.79 1013.75 1013.71 1013.59 1013.59 1013.67 1013.75 1013.75 1013.75 1013.79 1013.83 1013.83 1013.83 1013.79 1013.75 1013.71 1013.55 1013.35 1013.19 1013.03 1012.87 1012.71 1012.51 1012.35 1012.19 1012.11 1012.07 1012.03 1012.03 1012.15 1012.27 1012.27 1012.27 1012.39 1012.51 1012.55 1012.47 1012.47 1012.39 1012.27 1012.19 1012.15 1011.95 1011.67 1011.35 1011.19
1010.23 1010.47 1010.79 1011.11 1011.51 1011.55 1011.75 1011.99 1012.35 1012.63 1012.95 1013.11 1013.15 1013.27 1013.31 1013.39 1013.59 1013.67 1013.75 1013.71 1013.67 1013.67 1013.75 1013.87 1013.91 1013.91 1013.95 1013.95 1013.91 1013.87 1013.87 1013.83 1013.87 1013.83 1013.71 1013.47 1013.27 1013.19 1013.07 1012.83 1012.55 1012.51 1012.35 1012.23 1012.27 1012.35 1012.47 1012.59 1012.55 1012.63 1012.71 1012.75 1012.87 1012.87 1012.79 1012.67 1012.55 1012.47 1012.39 1012.31 1011.99 1011.67 1011.47
1010.55 1010.75 1010.91 1011.19 1011.47 1011.55 1011.79 1012.07 1012.27 1012.55 1012.91 1013.19 1013.15 1013.19 1013.23 1013.35 1013.43 1013.63 1013.67 1013.75 1013.79 1013.87 1013.91 1013.95 1013.99 1014.03 1014.07 1014.03 1014.03 1014.03 1013.99 1013.99 1014.03 1014.07 1014.03 1013.83 1013.63 1013.47 1013.31 1013.23 1012.99 1012.75 1012.63 1012.55 1012.55 1012.59 1012.63 1012.71 1012.75 1012.83 1012.91 1013.07 1013.15 1013.19 1013.19 1013.11 1012.95 1012.87 1012.71 1012.47 1012.35 1012.23 1011.99
1010.47 1010.59 1010.83 1011.11 1011.27 1011.43 1011.91 1012.07 1012.43 1012.63 1012.87 1013.11 1013.11 1013.15 1013.27 1013.31 1013.43 1013.51 1013.67 1013.83 1013.91 1013.95 1013.95 1013.99 1014.03 1014.07 1014.11 1014.15 1014.15 1014.15 1014.15 1014.19 1014.27 1014.39 1014.39 1014.43 1014.19 1013.95 1013.63 1013.43 1013.39 1013.19 1013.07 1012.91 1012.87 1012.87 1012.87 1012.95 1013.03 1013.19 1013.31 1013.43 1013.51 1013.59 1013.63 1013.59 1013.47 1013.31 1013.15 1012.91 1012.71 1012.55 1012.43
1010.43 1010.87 1010.95 1010.95 1011.19 1011.43 1011.79 1012.03 1012.27 1012.63 1012.87 1013.03 1013.07 1013.15 1013.27 1013.39 1013.55 1013.63 1013.75 1013.83 1013.91 1013.91 1013.99 1014.07 1014.11 1014.15 1014.19 1014.19 1014.19 1014.27 1014.35 1014.43 1014.47 1014.67 1014.87 1014.99 1014.99 1014.87 1014.47 1013.99 1013.75 1013.79 1013.79 1013.59 1013.31 1013.27 1013.35 1013.31 1013.39 1013.51 1013.59 1013.75 1013.83 1013.87 1013.91 1013.95 1013.99 1013.95 1013.71 1013.47 1013.23 1013.11 1012.99
1010.43 1010.59 1010.99 1011.27 1011.47 1011.51 1011.67 1012.03 1012.35 1012.63 1012.87 1012.99 1012.99 1013.15 1013.27 1013.47 1013.67 1013.71 1013.71 1013.83 1013.87 1013.95 1014.03 1014.15 1014.15 1014.19 1014.23 1014.23 1014.27 1014.39 1014.43 1014.55 1014.67 1014.83 1015.07 1015.27 1015.39 1015.47 1015.47 1015.31 1014.75 1014.31 1014.23 1014.27 1014.07 1013.71 1013.55 1013.59 1013.71 1013.79 1013.91 1013.91 1013.99 1014.07 1014.27 1014.47 1014.63 1014.83 1014.55 1014.23 1013.95 1013.67 1013.55
1010.59 1010.87 1011.15 1011.31 1011.47 1011.67 1011.87 1012.07 1012.27 1012.67 1012.87 1012.95 1012.99 1013.07 1013.19 1013.43 1013.63 1013.71 1013.71 1013.75 1013.83 1013.91 1014.11 1014.23 1014.27 1014.31 1014.35 1014.35 1014.43 1014.51 1014.63 1014.75 1014.87 1014.99 1014.99 1015.11 1015.27 1015.31 1015.47 1015.59 1015.43 1015.07 1014.79 1014.75 1014.51 1014.27 1014.19 1013.99 1014.15 1014.23 1014.27 1014.43 1014.55 1014.43 1014.43 1014.91 1015.31 1015.07 1014.63 1014.51 1014.35 1014.35 1014.31
1010.55 1011.03 1011.27 1011.47 1011.71 1011.99 1012.07 1012.35 1012.51 1012.63 1012.75 1012.91 1013.03 1013.07 1013.15 1013.23 1013.51 1013.71 1013.79 1013.79 1013.79 1013.91 1014.11 1014.23 1014.39 1014.47 1014.47 1014.51 1014.67 1014.71 1014.83 1014.99 1015.11 1015.23 1015.31 1015.35 1015.39 1015.35 1015.39 1015.39 1015.47 1015.59 1015.51 1015.31 1015.15 1015.03 1014.91 1014.83 1014.75 1014.67 1014.63 1014.47 1015.03 1015.47 1015.43 1015.39 1015.27 1015.15 1015.07 1014.87 1014.79 1014.67 1014.63
1010.27 1010.63 1011.07 1011.39 1011.47 1011.79 1012.15 1012.43 1012.55 1012.55 1012.63 1012.87 1012.95 1013.03 1013.15 1013.11 1013.35 1013.59 1013.75 1013.83 1013.91 1013.99 1014.15 1014.27 1014.39 1014.63 1014.75 1014.79 1014.87 1014.95 1015.07 1015.19 1015.27 1015.35 1015.43 1015.51 1015.55 1015.59 1015.63 1015.51 1015.39 1015.67 1015.95 1015.87 1015.67 1015.59 1015.51 1015.47 1015.43 1015.43 1015.39 1015.31 1015.15 1015.11 1015.51 1015.55 1015.43 1015.31 1015.27 1015.27 1015.23 1015.19 1015.15
Wind_Speed
3 3 3 2 3 4 5 4 4 5 5 5 7 6 6 5 4 4 4 5 6 6 11 11 9 8 9 8 8 8 7 7 8 6 6 6 6 5 5 5 5 5 5 5 5 6 6 5 5 6 6 6 6 6 6 6 6 5 6 6 5 5 5
4 4 4 3 4 4 4 4 4 4 5 5 5 6 4 5 4 5 5 6 7 7 8 11 12 9 9 8 7 8 8 8 8 6 6 6 5 5 6 6 6 6 6 6 6 6 6 6 6 6 6 6 7 7 7 6 6 6 5 6 5 5 4
4 4 4 4 4 5 5 4 4 5 5 5 5 5 6 6 6 6 5 5 6 6 5 8 10 10 10 8 8 9 9 8 8 8 9 8 8 8 6 6 6 6 6 6 6 5 5 5 6 6 6 6 6 7 7 6 6 6 6 6 5 5 6
5 5 5 4 3 3 3 3 4 4 4 5 5 6 6 6 6 5 5 5 5 4 6 6 7 8 7 5 6 7 9 8 8 8 8 8 7 7 6 6 5 5 5 6 6 6 5 6 6 6 7 7 7 6 6 7 6 6 6 6 5 6 5
4 3 3 3 3 4 4 4 4 4 4 4 4 3 4 3 4 4 3 3 4 5 5 5 5 5 6 8 7 6 7 8 9 8 8 7 7 7 7 7 6 6 7 6 6 6 6 6 6 6 7 7 6 6 7 6 6 6 6 6 6 5 5
5 4 4 4 3 3 3 3 3 3 4 4 4 4 3 3 3 3 4 4 4 3 3 4 5 5 6 7 7 7 7 8 7 7 7 8 8 8 8 7 7 7 7 7 6 6 7 7 6 6 7 6 6 6 6 6 6 5 6 5 6 5 5
5 4 4 3 3 3 2 2 2 3 4 3 4 3 4 4 5 4 4 4 4 4 3 3 3 4 4 4 6 6 8 7 7 8 8 9 9 9 8 7 7 7 7 5 6 6 7 7 7 7 7 6 7 7 7 7 6 6 6 5 6 6 6
4 4 3 3 3 4 4 3 4 4 3 2 4 4 4 3 3 3 3 3 2 3 3 3 3 4 4 5 5 6 5 6 5 4 4 7 9 9 7 7 6 6 6 7 7 7 7 7 7 7 7 7 7 7 7 7 7 6 5 6 6 7 4
4 4 4 4 4 4 4 4 4 4 4 4 4 4 4 4 4 4 4 3 3 4 4 4 4 4 4 5 6 7 6 5 6 4 4 5 4 6 6 6 7 6 7 7 6 6 7 6 7 7 7 7 7 8 7 7 7 6 6 6 7 7 6
5 4 4 3 4 4 5 5 5 5 5 4 4 3 4 3 3 2 1 2 3 4 5 3 4 4 5 5 6 6 6 6 5 7 6 5 4 5 5 5 5 6 7 8 6 7 6 7 7 6 7 7 7 7 7 7 7 7 7 8 8 7 8
4 5 5 5 6 6 5 6 6 5 4 4 4 3 3 4 3 3 3 4 3 3 3 3 3 3 4 5 5 5 5 6 6 7 7 8 5 5 5 6 6 5 6 6 7 7 6 6 7 7 7 7 8 7 7 7 7 7 7 7 7 8 8
6 6 6 6 6 6 7 6 5 4 4 4 3 4 3 3 3 3 3 2 2 3 4 3 2 3 3 3 4 4 5 6 6 7 7 6 6 5 6 6 6 7 6 6 7 7 7 7 6 7 8 8 8 8 8 7 7 8 8 8 7 7 7
7 7 7 8 7 6 4 5 6 5 4 4 3 3 2 3 3 3 3 4 4 4 3 4 3 3 2 3 4 4 4 4 5 5 6 6 6 6 6 6 7 7 7 5 5 6 7 6 7 7 7 8 8 8 8 8 7 7 8 8 7 8 7
6 5 4 4 5 7 7 6 5 5 5 5 4 3 3 2 2 2 3 3 4 4 4 4 4 3 3 3 3 4 5 4 4 4 4 4 4 5 6 6 6 6 6 5 5 4 4 5 6 6 6 6 7 8 7 7 7 7 7 7 7 7 7
8 8 7 7 7 6 6 6 5 5 4 4 4 4 3 2 2 2 2 2 3 4 4 4 3 4 3 3 3 3 4 4 4 3 4 5 5 6 5 5 5 5 5 4 4 4 4 3 3 4 5 6 7 7 7 7 7 6 6 8 8 7 8
9 9 9 8 8 7 6 6 6 6 6 5 5 3 3 1 1 1 1 2 2 3 3 3 3 4 5 5 5 5 5 5 5 4 2 3 5 4 3 3 3 4 4 4 4 4 5 5 4 3 4 5 6 6 6 7 6 7 13 11 8 8 7
9 9 8 7 6 6 5 5 5 5 6 6 5 5 4 2 1 2 2 2 2 2 2 2 3 4 5 5 5 5 4 4 4 4 5 5 4 4 4 5 5 6 6 6 5 6 5 5 5 5 5 5 5 6 6 6 6 12 13 13 14 9 8
10 9 9 8 7 6 5 6 6 6 6 6 5 5 4 3 1 1 2 2 2 2 1 3 3 3 4 4 5 6 6 6 5 5 5 5 4 5 5 6 6 6 6 6 6 5 4 6 6 5 5 4 4 5 5 5 8 13 13 14 14 13 8
10 9 9 8 8 7 7 8 7 7 6 5 5 5 4 3 2 3 3 2 2 1 3 4 3 3 3 4 4 5 6 6 6 6 5 5 5 4 5 6 6 6 6 6 6 5 6 6 5 5 4 5 5 6 4 4 6 10 12 13 14 15 13
9 9 7 7 7 7 6 5 5 5 6 5 5 4 3 3 3 2 1 1 1 2 3 4 4 4 3 3 3 4 4 6 6 6 6 6 6 6 4 4 5 6 5 6 6 6 6 5 6 4 4 4 4 5 4 4 5 7 9 11 12 13 11
9 9 10 9 7 6 7 7 7 5 5 4 5 4 2 2 1 1 1 2 2 3 3 4 4 4 4 4 4 3 4 5 5 6 7 7 5 5 6 5 5 6 5 5 5 6 6 6 6 6 5 4 3 4 4 4 3 4 5 7 10 11 8
10 10 10 10 10 9 9 9 9 8 7 5 4 3 3 3 2 3 2 2 3 2 2 3 4 4 4 4 4 4 4 4 5 6 8 8 6 5 5 5 5 6 5 6 5 5 4 5 5 6 6 4 4 4 5 4 3 2 2 2 4 4 4
13 12 11 7 8 9 8 7 7 7 6 6 5 5 4 3 4 4 3 3 1 2 2 2 3 3 3 3 3 3 4 4 5 6 6 6 8 8 7 6 6 6 5 6 5 5 5 5 5 4 5 4 4 4 4 4 2 1 1 1 2 3 3
4 5 6 8 7 7 7 6 6 5 6 6 4 3 2 4 5 4 3 2 1 1 0 1 2 2 2 2 3 4 4 4 5 5 6 6 6 7 8 7 6 6 5 7 6 6 6 5 5 5 5 5 5 4 4 4 3 4 3 2 4 5 4
7 6 8 10 12 10 8 7 7 6 5 6 5 3 4 5 5 4 3 3 2 2 1 2 1 1 2 3 3 4 4 4 4 4 5 5 6 6 7 8 8 7 6 6 7 7 6 6 6 5 3 2 3 5 5 5 3 3 3 4 4 4 3
8 8 7 7 6 9 9 8 7 6 6 5 5 4 4 4 5 4 3 1 1 2 3 3 2 2 0 1 3 3 4 4 4 4 4 5 6 6 6 6 7 7 7 6 6 6 6 6 6 4 2 2 2 2 3 3 4 4 4 5 5 6 3
8 11 12 9 9 8 8 7 7 8 7 5 5 5 4 5 4 3 2 1 1 2 4 3 2 1 1 1 2 3 4 4 4 5 5 5 5 5 6 5 6 6 6 5 5 7 3 1 3 5 3 4 4 4 4 5 6 7 9 8 6 6 7
8 6 5 7 10 9 8 7 6 5 5 5 5 5 5 5 3 2 2 1 2 3 3 4 2 2 2 2 3 3 3 4 5 5 5 5 5 5 5 5 4 4 5 3 3 3 4 5 4 4 5 5 5 6 6 7 9 7 8 8 8 6 8
11 11 10 9 7 7 9 7 7 7 6 5 5 5 4 5 3 2 2 3 4 2 3 3 3 2 3 4 3 4 4 4 5 5 4 5 6 5 5 5 5 5 5 5 5 6 6 6 5 5 5 5 6 6 7 8 7 12 8 6 6 7 8
7 8 8 7 9 9 8 8 6 6 5 4 4 4 4 4 4 3 3 3 1 1 3 3 2 3 4 4 5 4 5 4 4 4 5 5 6 6 5 6 5 5 5 5 5 5 6 5 5 6 6 6 7 7 7 7 7 12 15 9 9 8 8
11 11 10 10 9 9 8 10 8 7 5 4 5 4 4 4 4 3 2 1 2 4 4 3 3 4 5 5 5 5 4 4 4 5 5 5 6 6 6 6 5 6 5 5 6 6 6 6 6 7 6 7 7 7 8 7 8 8 10 13 12 12 14
6 6 8 8 8 8 8 7 8 8 7 4 3 3 2 4 4 3 3 2 3 3 4 4 4 5 5 5 5 5 4 5 5 6 6 6 6 6 6 6 5 5 5 5 6 5 6 6 6 7 7 7 7 7 7 7 7 7 7 9 12 12 13
9 10 11 11 9 9 8 9 8 7 7 5 2 3 3 4 3 4 5 4 4 4 4 4 4 5 5 4 5 5 6 7 5 5 6 7 6 5 5 5 6 6 7 7 6 6 6 6 7 7 7 6 6 6 7 7 7 7 7 6 6 6 7
10 7 5 8 8 8 8 8 8 7 7 5 3 3 4 5 5 5 5 5 4 4 4 4 4 5 5 5 5 5 6 6 8 7 5 6 6 6 5 6 6 6 6 6 5 5 6 6 6 6 6 6 6 6 8 8 7 7 6 7 7 7 8
9 9 9 8 7 9 9 8 7 7 7 5 4 5 5 6 5 5 7 6 5 5 4 5 6 5 5 5 5 6 5 5 5 6 5 5 7 8 6 5 5 6 6 7 5 4 4 6 7 7 6 6 7 8 9 7 8 6 7 10 11 9 8
8 8 7 5 6 6 6 6 8 7 6 5 4 5 6 6 6 5 5 6 6 5 5 6 5 5 5 5 5 6 6 5 5 5 5 5 6 6 7 12 14 9 6 6 11 16 14 9 7 6 6 9 8 7 8 9 6 9 15 15 16 16 16
10 8 8 8 8 5 6 5 5 6 5 5 4 4 5 6 7 6 5 5 6 6 6 5 5 4 5 5 6 6 6 5 5 5 5 5 5 5 6 7 10 15 16 14 11 13 15 15 15 15 12 9 9 9 13 12 12 14 14 15 16 16 17
9 9 9 7 8 8 7 6 6 7 6 5 4 4 5 6 6 6 6 5 5 5 6 5 5 5 5 6 6 7 6 5 5 5 4 5 5 6 6 6 10 10 13 14 15 15 16 15 15 14 13 12 10 8 7 11 14 14 15 15 16 16 16
Wind_Direction
140 172 192 168 175 193 196 188 171 167 164 181 185 182 208 213 203 182 188 195 210 183 157 182 192 198 228 203 197 191 191 188 199 199 195 203 205 205 204 207 210 212 203 202 209 209 213 198 202 209 211 215 218 217 219 220 224 228 228 226 225 224 231
171 180 184 178 181 204 212 193 173 159 172 186 199 208 213 218 200 190 192 192 209 208 176 169 183 190 210 223 195 191 191 196 202 204 200 206 206 207 204 205 208 213 210 210 208 209 204 208 198 206 216 217 222 222 220 217 220 224 229 223 217 228 223
175 181 178 182 188 194 196 187 190 181 178 183 194 197 211 213 206 196 188 190 206 212 194 182 180 188 199 200 191 193 194 199 208 212 209 208 204 206 203 206 207 211 209 207 206 206 203 210 204 212 214 218 223 223 223 224 222 222 227 225 222 224 224
169 177 186 192 181 173 177 185 185 181 185 188 195 203 206 213 209 202 193 198 200 202 203 201 192 193 177 183 197 198 200 199 205 211 215 211 206 201 196 205 207 210 208 205 202 200 205 203 204 210 217 218 225 226 224 224 223 219 225 220 226 227 229
160 144 143 170 169 160 166 180 182 183 196 183 183 195 204 203 191 188 198 195 195 207 210 199 195 191 177 183 194 201 199 203 209 211 214 216 214 205 199 202 203 207 212 209 201 199 203 203 201 200 211 215 222 225 228 224 223 219 223 213 229 227 232
161 158 172 173 169 173 173 170 165 168 168 176 172 174 177 169 157 194 198 204 201 206 200 200 199 195 198 192 192 197 202 207 203 205 207 216 213 211 209 206 204 208 212 211 204 204 201 201 205 203 205 206 215 221 221 221 223 214 221 215 222 232 233
165 165 164 171 163 158 142 136 109 133 155 162 174 176 165 169 178 188 185 200 209 204 204 208 208 206 219 197 202 205 209 206 206 210 207 213 215 213 207 204 208 209 212 207 214 206 206 204 205 206 205 205 212 217 221 220 222 217 214 214 226 229 232
158 156 155 153 149 134 126 118 104 116 120 132 137 152 150 155 136 161 193 210 202 208 214 211 216 221 225 212 206 213 212 214 209 204 196 202 210 210 202 199 201 208 210 213 215 209 211 211 208 205 204 206 208 214 215 216 219 213 203 209 223 232 221
164 148 146 146 137 132 128 124 120 117 117 111 111 125 142 155 170 181 204 223 235 225 232 208 216 211 212 222 218 218 220 218 219 200 208 225 218 218 216 207 199 194 209 218 223 210 215 215 216 213 209 212 214 213 214 212 213 212 204 213 217 226 228
161 125 113 115 117 116 118 119 115 108 104 93 82 79 72 69 66 60 83 200 216 238 255 241 219 210 212 223 227 220 219 223 227 232 229 225 233 238 238 246 239 210 206 211 215 220 213 214 214 213 212 216 220 216 218 217 214 216 207 212 213 219 229
151 135 127 133 133 129 121 119 121 122 121 118 103 82 73 73 64 53 29 15 335 296 273 257 231 220 221 231 235 235 225 233 229 233 235 240 235 239 242 239 244 248 229 215 214 215 211 209 207 208 206 211 214 218 220 222 221 223 224 217 215 217 223
155 150 154 148 142 138 143 145 131 125 128 122 127 133 129 108 90 75 73 34 339 329 317 311 277 243 255 248 253 254 249 246 240 237 234 234 233 231 238 244 242 244 249 230 221 215 211 209 201 203 209 212 216 215 221 221 223 225 229 226 215 216 217
163 163 162 160 158 150 126 132 148 147 141 139 138 133 125 116 72 46 25 24 10 10 6 329 307 281 261 270 266 273 262 255 252 253 247 244 243 239 232 234 234 234 237 236 241 228 218 214 212 211 209 214 211 217 219 221 220 223 226 229 226 221 219
136 135 145 146 146 152 159 160 150 143 147 143 136 124 93 67 92 85 68 11 347 359 6 346 335 314 293 277 274 279 286 274 259 254 253 244 229 231 236 240 244 242 241 234 234 251 251 234 218 213 206 213 217 220 220 217 223 222 225 226 223 217 219
158 166 166 169 173 169 156 160 162 155 152 142 128 124 102 68 37 46 50 25 1 359 2 342 352 350 4 352 335 329 318 313 299 283 259 255 244 240 242 250 260 263 257 243 244 240 236 243 262 239 219 217 219 225 220 221 219 213 208 222 224 219 222
168 173 177 180 181 177 173 164 160 165 156 145 145 142 135 89 27 3 9 353 5 358 343 11 22 23 21 23 18 13 9 359 1 348 321 265 264 266 271 266 272 279 278 275 258 248 243 239 227 235 237 234 228 223 223 223 225 223 221 214 217 215 219
175 181 184 183 179 178 171 163 161 160 154 159 169 178 180 210 290 332 331 324 335 352 356 43 39 39 31 16 1 9 11 12 5 352 351 337 304 302 299 289 280 268 269 271 273 273 273 267 254 240 231 230 234 233 225 226 229 232 231 226 224 218 216
178 182 183 185 182 170 169 166 169 165 165 171 177 183 179 195 241 345 282 295 315 335 50 68 54 40 34 24 10 359 359 356 356 357 344 338 345 339 313 282 269 269 265 266 266 255 248 253 254 252 250 244 238 234 235 237 238 233 232 228 225 226 222
181 180 183 180 178 183 180 177 173 167 165 166 177 184 209 182 176 217 244 277 314 356 58 66 69 47 33 23 22 4 354 351 347 344 338 333 333 338 336 327 292 261 256 256 254 254 255 253 251 249 241 242 249 252 246 248 249 246 243 241 236 231 229
178 176 177 184 186 178 168 154 161 167 168 172 183 190 189 196 193 240 275 283 5 42 31 41 32 44 25 14 18 1 357 349 340 331 325 324 329 332 329 316 310 311 275 256 255 252 254 250 254 247 243 241 246 254 262 256 274 271 261 251 247 245 236
170 172 182 185 175 163 162 163 157 150 140 164 182 186 168 177 205 185 64 52 45 25 29 22 14 15 4 357 347 349 358 347 332 318 317 317 314 322 317 311 305 300 307 300 265 246 242 248 261 262 261 257 245 249 252 252 263 298 292 268 253 249 243
174 172 184 191 175 162 164 167 164 162 171 176 156 168 158 166 169 139 111 59 77 42 39 12 8 350 339 344 344 347 341 332 323 316 313 308 303 299 296 300 298 300 301 297 291 273 250 247 241 254 262 254 244 249 258 257 263 289 329 311 278 252 230
168 182 188 177 159 161 161 159 150 160 151 157 168 151 166 164 144 129 105 76 29 69 20 14 337 319 326 347 344 340 334 326 314 309 303 303 306 303 297 287 282 280 278 281 277 277 264 245 239 235 237 229 227 232 250 257 221 195 260 302 174 164 205
169 165 132 120 117 131 139 132 132 149 149 149 134 155 146 142 130 114 107 109 109 68 343 287 287 313 343 342 346 339 332 327 318 314 315 314 306 304 305 298 284 280 272 265 269 268 264 258 245 226 215 221 235 231 259 273 201 201 221 223 198 197 197
157 142 145 147 147 149 147 148 147 145 129 132 130 132 124 124 121 113 134 157 178 178 195 209 154 28 352 342 345 337 331 328 321 329 325 322 315 309 302 296 295 294 288 277 260 259 255 253 246 230 185 177 218 252 266 276 266 237 250 253 222 211 205
138 132 133 137 131 139 140 139 127 120 136 146 154 145 128 126 118 129 141 195 186 203 169 186 139 167 160 342 345 340 343 344 335 337 335 326 324 317 303 303 304 298 291 285 267 245 236 237 229 192 108 49 46 28 349 330 327 331 345 332 284 245 222
147 150 149 150 140 132 134 145 149 157 162 156 140 138 133 125 119 159 184 167 133 171 174 168 175 141 73 29 12 4 355 353 355 345 336 329 326 321 329 330 319 309 302 292 284 257 245 267 107 102 85 54 38 23 21 359 345 348 359 353 336 302 242
114 101 104 127 136 132 132 133 127 123 115 113 135 139 138 133 158 188 186 136 164 188 180 154 174 139 79 55 32 23 15 2 7 1 342 340 343 340 345 345 343 340 335 331 354 21 83 80 60 65 68 53 37 29 19 6 9 0 347 356 335 311 268
145 145 142 133 126 137 136 136 144 149 146 133 137 139 149 138 154 194 186 216 189 209 155 137 150 110 85 58 43 36 26 17 7 353 353 354 352 349 353 354 3 11 14 11 40 57 50 53 69 78 62 48 40 35 29 21 18 14 355 1 350 311 271
133 131 132 136 144 149 141 137 143 139 129 120 129 143 148 144 160 197 207 255 281 138 99 81 70 71 65 59 49 41 32 17 1 356 4 2 2 2 359 5 7 22 34 35 42 51 57 47 44 54 57 53 43 36 29 27 28 29 23 23 27 35 47
155 151 150 147 153 151 147 148 149 141 121 113 125 139 154 159 165 200 191 293 112 127 116 103 86 76 72 62 50 43 37 25 19 10 6 5 10 14 11 8 12 32 22 46 58 61 65 57 55 61 59 55 53 44 39 30 35 35 34 41 50 63 72
124 128 132 132 141 148 143 136 135 141 137 112 114 138 172 198 183 175 178 126 105 103 121 110 98 85 74 68 58 43 35 33 22 19 16 16 8 8 31 28 15 36 38 44 53 56 65 66 65 65 62 60 54 52 46 38 35 37 35 43 56 58 63
153 155 154 157 157 140 138 140 142 149 143 136 125 107 100 109 119 133 134 123 118 113 114 115 103 86 74 71 66 55 47 50 40 26 23 16 7 3 4 29 35 36 38 42 56 59 67 68 70 67 64 67 59 54 49 42 38 38 34 22 31 40 52
153 154 158 149 147 143 140 147 152 154 149 148 166 129 114 117 126 140 131 127 125 124 123 104 90 84 77 70 70 65 58 57 50 46 39 32 23 13 357 4 26 41 35 26 32 65 67 74 75 75 81 77 74 67 63 57 42 26 24 28 43 54 56
160 153 145 144 149 151 156 156 155 156 151 159 166 143 128 134 144 152 141 141 143 143 117 105 102 96 85 78 72 66 63 61 57 58 55 56 52 46 34 6 358 25 44 28 8 26 84 97 83 77 67 72 73 80 70 62 49 33 51 57 52 55 65
144 140 140 141 140 148 145 151 149 149 155 163 170 151 139 145 160 169 157 147 146 137 118 118 108 95 83 74 70 69 64 56 51 48 60 64 64 68 63 50 50 38 54 47 26 47 42 50 77 78 89 78 64 64 87 91 100 81 68 67 67 64 64
144 141 142 141 132 136 144 138 138 140 148 162 167 158 149 157 167 175 171 163 146 131 121 118 105 92 92 84 79 78 72 69 63 59 58 58 64 60 74 79 54 45 49 56 55 55 54 56 59 62 61 82 91 62 65 84 79 71 67 64 63 64 62
146 146 144 148 150 149 142 141 144 152 161 164 166 155 151 158 175 173 169 162 142 122 120 115 110 102 93 93 95 87 78 69 75 72 71 60 65 72 79 81 88 68 39 50 60 57 58 58 57 56 58 59 72 98 83 72 78 77 73 69 65 63 62